TimeCST,TemperatureF,Dew PointF,Humidity,Sea Level PressureIn,VisibilityMPH,Wind Direction,Wind SpeedMPH,Gust SpeedMPH,PrecipitationIn,Events,Conditions,WindDirDegrees,DateUTC
12:08 AM,23.0,3.2,43,30.48,10.0,SW,8.1,-,N/A,,Clear,220,2014-01-07 06:08:00
12:58 AM,23.4,3.7,43,30.56,10.0,SW,6.9,-,0.00,,Clear,230,2014-01-07 06:58:00
1:58 AM,22.6,3.6,44,30.53,10.0,SSW,3.5,-,N/A,,Clear,210,2014-01-07 07:58:00
2:58 AM,22.1,5.4,49,30.53,10.0,Calm,Calm,-,N/A,,Clear,0,2014-01-07 08:58:00
3:58 AM,20.1,6.4,55,30.53,10.0,SSW,5.8,-,N/A,,Clear,210,2014-01-07 09:58:00
4:58 AM,21.7,6.1,51,30.50,10.0,South,3.5,-,N/A,,Clear,180,2014-01-07 10:58:00
5:58 AM,18.9,7.3,61,30.51,10.0,SW,4.6,-,N/A,,Clear,220,2014-01-07 11:58:00
6:58 AM,18.0,9.1,68,30.51,10.0,SSE,6.9,-,N/A,,Clear,160,2014-01-07 12:58:00
7:58 AM,21.6,10.0,61,30.51,10.0,South,4.6,-,N/A,,Clear,170,2014-01-07 13:58:00
8:58 AM,28.8,12.2,50,30.49,10.0,South,10.4,-,N/A,,Clear,180,2014-01-07 14:58:00
9:58 AM,32.9,13.8,45,30.48,10.0,SSW,18.4,21.9,N/A,,Clear,200,2014-01-07 15:58:00
10:58 AM,37.2,13.8,38,30.46,10.0,SSW,12.7,-,N/A,,Clear,200,2014-01-07 16:58:00
11:58 AM,41.9,14.5,33,30.40,10.0,South,16.1,-,N/A,,Clear,190,2014-01-07 17:58:00
12:58 PM,43.9,16.3,33,30.32,10.0,South,18.4,24.2,N/A,,Clear,180,2014-01-07 18:58:00
1:58 PM,45.5,16.9,32,30.29,10.0,SSW,18.4,-,N/A,,Clear,200,2014-01-07 19:58:00
2:58 PM,48.4,19.4,32,30.25,10.0,South,19.6,-,N/A,,Clear,180,2014-01-07 20:58:00
3:58 PM,48.7,20.3,33,30.23,10.0,South,20.7,26.5,N/A,,Clear,180,2014-01-07 21:58:00
4:58 PM,46.9,20.3,35,30.22,10.0,South,16.1,-,N/A,,Clear,180,2014-01-07 22:58:00
5:58 PM,44.2,20.3,39,30.22,10.0,South,11.5,-,N/A,,Clear,170,2014-01-07 23:58:00
6:58 PM,42.6,21.2,43,30.21,10.0,South,15.0,-,N/A,,Clear,170,2014-01-08 00:58:00
7:58 PM,41.9,22.3,46,30.20,10.0,South,17.3,-,N/A,,Clear,180,2014-01-08 01:58:00
8:58 PM,40.6,22.1,48,30.19,10.0,South,21.9,29.9,N/A,,Clear,180,2014-01-08 02:58:00
9:58 PM,39.7,21.2,48,30.18,10.0,South,19.6,31.1,N/A,,Clear,190,2014-01-08 03:58:00
10:58 PM,37.8,21.0,51,30.16,10.0,South,23.0,31.1,N/A,,Clear,180,2014-01-08 04:58:00
11:58 PM,37.2,20.8,52,30.12,10.0,South,27.6,36.8,N/A,,Overcast,180,2014-01-08 05:58:00